Weather in Gunib

Russia / Republic of Dagestan     42°23′16″N   46°57′40″E
temp.,
°C
wind,
m/s
gust,
m/s
humid.,
%
clouds,
%
prec.,
mm/h
press.,
hPa
HPBL,
m
10 august, wed
wed1000:00+12ssw11840 0.0 101811
03:00+11ssw11860 0.0 101711
06:00+13ssw11790 0.0 101741
09:00+19ese22560 0.0 1014578
12:00+23e23430 0.0 10121684
15:00+25ene33416 0.0 10101786
18:00+21ene33580 0.0 101169
21:00+16sse22700 0.0 101318
11 august, thu
thu1100:00+15ssw22720 0.0 101214
03:00+14ssw22710 0.0 101215
06:00+15ssw22680 0.0 101231
09:00+23ese22480 0.0 1010605
12:00+27e22400 0.0 10081396
15:00+28e33400 0.0 10071563
18:00+22e33670 0.3 1009102
21:00+18sse11810 0.7 101215
12 august, fri
fri1200:00+16sw22710 0.0 101312
03:00+15sw22730 0.0 101312
06:00+17ssw11740 0.0 101422
09:00+23ese11520 0.0 1013510
12:00+27ene22440 0.0 10111558
15:00+26e444955 0.8 1012930
18:00+23se22650 2.4 101363
21:00+17s228658 2.8 101519
13 august, sat
sat1300:00+16s11830 0.1 101514
03:00+15ssw11820 1.1 101513
06:00+16s11730 0.1 101631
09:00+22ese22540 0.1 1014559
12:00+26ene22420 0.0 10121432
15:00+26ese34411 0.4 10111309
18:00+21ene236423 1.6 101362
21:00+16se11760 1.8 101519
14 august, sun
sun1400:00+15s22750 0.0 101413
03:00+14ssw22630 0.0 101412
06:00+15ssw21610 0.0 101419
09:00+22se22410 0.0 1012401
12:00+27e12340 0.0 10101337
15:00+29e43320 0.0 10091648
18:00+23e33500 0.0 101141
21:00+18sse22600 0.0 101317